sat.trackr.live / text

‹ back to catalog

STARLINK-4436

NORAD 53479 · 2022-099Q

PAYLOAD ACTIVE UNKNOWN

§ Identity

Operator
Country
US
Launch date
2022-08-12
Launch site
AFWTR
Launch vehicle
Mass (kg)
RCS (m²)

Purposes: comms

External: N2YO · Heavens-Above · Gunter

§ Orbital elements

Epoch: 2026-05-25T01:31:11.636832Z

Period
95.64 min
Inclination
97.4462°
Eccentricity
0.0002370
Mean motion
15.05654068 rev/d
Perigee alt
547.9 km
Apogee alt
551.1 km
Semi-major
6,927.6 km
B*
-5.3829e-5
RAAN
266.1911°
Arg perigee
124.0550°
Mean anomaly
236.0902°
Rev number
20,754

§ Raw data

STARLINK-44361 53479U 22099Q   26145.06332913 -.00000835  00000+0 -53829-4 0  99932 53479  97.4462 266.1911 0002370 124.0550 236.0902 15.05654068207547

JSON: /api/v1/satellites/53479 · /tle

For live sub-satellite position, see the globe view (requires WebGL).

§ Visibility from observer

Set your observer location to see the next 7 days of passes ≥ 10°. The values pass through the URL so the page stays shareable.

No JS? Fill the form by hand. The geolocation button needs JavaScript.